Location: Cleveland
(41.4990°N, 81.6960°W)
Time: 11:20:31
(UTC-04:00)

ISS - Pass Details

Date: 25 September 2021
Orbit: 417 x 423 km, 51.6° (Epoch: 28 October)

Event Time Altitude Azimuth Distance (km) Brightness Sun altitude
Rises 20:19:08 0° 294° (WNW) 2,363 1.8 -12.2°
Reaches altitude 10° 20:21:56 10° 319° (NW) 1,501 -0.2 -12.7°
Maximum altitude 20:23:57 15° 356° (N) 1,242 -1.2 -13.1°
Drops below altitude 10° 20:25:57 10° 33° (NNE) 1,503 -1.2 -13.5°
Enters shadow 20:26:32 - 40° (NE) 1,650 -1.0 -13.6°
